Location: Hysolar-Haus
(48.7436°N, 9.0965°E)
Time: 23:33:23
(UTC+00:00)

ISS - Visible Passes

Search period start: 30 January 2023 00:00
Search period end: 09 February 2023 00:00
Orbit: 413 x 419 km, 51.6° (Epoch: 30 January)

Date Brightness Start Highest point End Pass type
(mag) Time Alt. Az. Time Alt. Az. Time Alt. Az.
30 Jan -3.8 17:31:35 10° WNW 17:34:59 80° NNE 17:37:03 21° ESE visible
30 Jan -1.0 19:08:36 10° W 19:09:58 19° WSW 19:09:58 19° WSW visible
31 Jan -2.6 18:19:44 10° WNW 18:22:55 38° SSW 18:23:38 33° S visible
01 Feb -3.2 17:30:57 10° WNW 17:34:17 57° SSW 17:37:26 11° SE visible
01 Feb -0.7 19:09:08 10° WSW 19:10:21 12° SW 19:10:21 12° SW visible
02 Feb -1.1 18:19:31 10° W 18:21:55 18° SW 18:24:19 10° S visible
03 Feb -1.7 17:30:24 10° W 17:33:20 27° SW 17:36:14 10° SSE visible
05 Feb -0.6 17:30:29 10° WSW 17:32:05 13° SW 17:33:40 10° SSW visible
